[[{"header":{"parameterUnit":"m.s-1","parameterCategory":1,"la1":30.2991,"la2":30.254,"lo1":-89.0895,"lo2":-89.0444,"dy":0.0017,"dx":0.0017,"nx":28,"ny":28,"refTime":"2025-05-20T09:00:00:Z","depth":0,"parameterNumber":2,"parameterNumberName":"U-component_of_WINDS"},"data":[0,0,0,0,0,0,0,0,0,0,0,0,0,0,0,0,0,0,0,0,0,0,0,0,0,0,0,0,0,0,0,0,0,0,0,0,0,0,0,0,0,0,0,0,0,0,0,0,0,0,0,0,0,0,0,0,0,0,0.4937,0.4938,0,0.506,0.5062,0.5063,0.5101,0.51,0.51,0.5099,0.523,0.5234,0.5238,0,0,0,0,0,0,0,0,0,0,0,0,0,0.4739,0.4742,0.4937,0.4938,0.494,0.506,0.5062,0.5063,0.5101,0.51,0.51,0.5099,0.5229,0.5233,0.5238,0,0,0,0,0,0,0,0,0,0,0,0,0,0.484,0.4743,0.4936,0.4973,0.4978,0.506,0.5062,0.5064,0.5101,0.51,0.5099,0.5099,0.5227,0.5233,0.5239,0.5295,0,0,0.5257,0.526,0,0,0,0,0,0,0,0,0.4834,0.4847,0.4966,0.4971,0.4976,0.5064,0.504,0.5141,0.5102,0.5054,0.5099,0.5098,0.5176,0.5186,0.5211,0.5301,0.5307,0.5258,0.5262,0.5264,0.5266,0,0,0,0,0,0,0,0.4827,0.4842,0.4986,0.4968,0.4974,0.4985,0.4998,0.5059,0.5119,0.5058,0.5062,0.5075,0.5178,0.5205,0.5215,0.5308,0.5258,0.5263,0.5267,0.5269,0.5452,0.5453,0,0,0,0,0,0,0.4813,0.4836,0.4982,0.4989,0.4901,0.4989,0.5004,0.5037,0.5118,0.513,0.5076,0.5077,0.5195,0.5208,0.5219,0.5291,0.5264,0.527,0.5273,0.5451,0.5452,0.5453,0,0,0,0,0,0,0.4809,0.4826,0.4977,0.4914,0.4934,0.4994,0.503,0.504,0.5067,0.5132,0.5143,0.5092,0.5195,0.5211,0.5276,0.5296,0.5273,0.5278,0.5449,0.5451,0.5453,0.5434,0,0,0,0,0,0,0.4803,0.4824,0.4844,0.4914,0.4937,0.5029,0.5031,0.5043,0.5077,0.5079,0.515,0.5161,0.5196,0.5267,0.5282,0.5304,0.5283,0.5448,0.545,0.5452,0.5433,0.5435,0.5436,0,0,0,0,0,0.4796,0.4835,0.4845,0.4863,0.4964,0.503,0.5044,0.5082,0.5078,0.51,0.5142,0.5159,0.5291,0.5273,0.529,0.5315,0.5447,0.5449,0.5452,0.5432,0.5434,0.5436,0,0,0,0,0,0,0.4768,0.4845,0.4857,0.492,0.4968,0.5037,0.5066,0.5083,0.5135,0.5135,0.5181,0.5197,0.5259,0.5293,0.5271,0.5374,0.537,0.5376,0.5349,0.5351,0.5353,0.5344,0.5288,0,0,0,0,0,0.4769,0.4815,0.4881,0.493,0.4953,0.5005,0.5036,0.5061,0.5114,0.5135,0.5181,0.5233,0.5287,0.5321,0.5374,0.5438,0.5455,0.5464,0.5466,0.5467,0.5472,0.551,0.5515,0.5462,0.5462,0.5462,0,0,0.4772,0.4819,0.4846,0.4925,0.4966,0.5014,0.5022,0.5073,0.511,0.5143,0.5207,0.5243,0.5304,0.5369,0.54,0.54,0.549,0.547,0.547,0.5475,0.5513,0.5518,0.5522,0.5464,0.5464,0.5463,0,0,0.4801,0.4842,0.4887,0.4928,0.4989,0.5023,0.5034,0.51,0.5125,0.519,0.5216,0.5262,0.5352,0.5395,0.5429,0.5476,0.5494,0.5492,0.5501,0.5538,0.5542,0.5546,0.5563,0.5569,0.5497,0.5497,0.5497,0,0.4798,0.487,0.4909,0.4959,0.4993,0.5024,0.5072,0.511,0.5185,0.5209,0.5207,0.5323,0.5366,0.5442,0.5454,0.548,0.5495,0.5484,0.5538,0.5542,0.5546,0.5564,0.557,0.5496,0.5496,0.5496,0.5496,0,0.4863,0.4913,0.4943,0.5014,0.5052,0.51,0.5148,0.5182,0.5204,0.524,0.5306,0.5359,0.5424,0.5444,0.5466,0.5523,0.5522,0.5528,0.5525,0.555,0.5567,0.5574,0.5495,0.5496,0.5496,0.5496,0,0,0.4878,0.497,0.498,0.5013,0.5083,0.5124,0.5174,0.5236,0.5265,0.5317,0.5362,0.5438,0.5445,0.5483,0.5511,0.5543,0.5578,0.5546,0.5549,0.5551,0.5646,0.5641,0.5648,0.559,0.5592,0.5593,0.5641,0,0.4917,0.5007,0.5044,0.5117,0.5165,0.5195,0.524,0.5289,0.5323,0.537,0.5409,0.5463,0.5467,0.5491,0.5524,0.5567,0.5598,0.5564,0.5634,0.5636,0.5618,0.5657,0.5651,0.5694,0.5648,0.5649,0.565,0,0.4974,0.5025,0.5103,0.5168,0.5189,0.5228,0.5289,0.5333,0.5389,0.5413,0.5455,0.5482,0.5538,0.5531,0.561,0.5586,0.5617,0.5643,0.5646,0.5654,0.5645,0.5667,0.5709,0.5715,0.5661,0.566,0.566,0,0.4978,0.5066,0.5124,0.5152,0.5229,0.5256,0.529,0.5345,0.538,0.5434,0.5458,0.5517,0.555,0.5597,0.5639,0.563,0.5715,0.5711,0.5737,0.5736,0.5754,0.5752,0.5801,0.5773,0.5773,0.5772,0.5772,0,0.5018,0.5065,0.5127,0.5163,0.5217,0.5259,0.5312,0.5348,0.5398,0.5442,0.5473,0.5515,0.5568,0.5617,0.5651,0.5712,0.5727,0.5749,0.5757,0.5746,0.5743,0.5767,0.5766,0.5774,0.5774,0.5773,0.5773,0,0.5031,0.5075,0.514,0.5208,0.5226,0.5263,0.5322,0.5359,0.5395,0.5451,0.5467,0.5525,0.5584,0.5631,0.5709,0.5732,0.5797,0.5806,0.5777,0.5782,0.5805,0.5803,0.5872,0.5884,0.5846,0.5847,0.5847,0,0.5054,0.509,0.5162,0.5193,0.5226,0.5277,0.5313,0.5357,0.5393,0.5461,0.5491,0.5552,0.5603,0.5698,0.5748,0.5808,0.5819,0.584,0.5829,0.5817,0.5821,0.5818,0.5823,0.5841,0.5841,0.5841,0.5841,0,0.509,0.5109,0.5159,0.5217,0.5259,0.5307,0.5356,0.538,0.5434,0.5474,0.5534,0.5574,0.5653,0.5715,0.578,0.5817,0.5839,0.5844,0.5854,0.5843,0.5825,0.5836,0.5781,0.5843,0.5843,0.5842,0.5842,0.5842,0.5109,0.5143,0.5199,0.5254,0.5295,0.534,0.5378,0.5419,0.547,0.5537,0.5561,0.5623,0.5681,0.5771,0.5809,0.586,0.5861,0.5875,0.5878,0.5881,0.588,0.5816,0.5872,0.5872,0.5872,0.5872,0.5872,0,0.5147,0.5184,0.5234,0.5301,0.5345,0.536,0.5415,0.5451,0.5505,0.5557,0.5607,0.5677,0.5737,0.5792,0.5855,0.5885,0.5897,0.5901,0.5899,0.5908,0.5875,0.5861,0.589,0.589,0.589,0.589,0.589,0.589,0.5171,0.523,0.5257,0.5338,0.5376,0.5436,0.5466,0.5509,0.555,0.5627,0.5676,0.5711,0.5765,0.5832,0.5889,0.5903,0.5926,0.5927,0.5944,0.5912,0.591,0.5908,0.5895,0.5931,0.5931,0.5973,0.5974,0.5974]},{"header":{"parameterUnit":"m.s-1","parameterCategory":1,"la1":30.2991,"la2":30.254,"lo1":-89.0895,"lo2":-89.0444,"dy":0.0017,"dx":0.0017,"nx":28,"ny":28,"refTime":"2025-05-20T09:00:00:Z","depth":0,"parameterNumber":3,"parameterNumberName":"V-component_of_WINDS"},"data":[0,0,0,0,0,0,0,0,0,0,0,0,0,0,0,0,0,0,0,0,0,0,0,0,0,0,0,0,0,0,0,0,0,0,0,0,0,0,0,0,0,0,0,0,0,0,0,0,0,0,0,0,0,0,0,0,0,0,2.2395,2.2395,0,2.2372,2.2371,2.2371,2.2313,2.2312,2.231,2.2309,2.2284,2.2284,2.2284,0,0,0,0,0,0,0,0,0,0,0,0,0,2.239,2.239,2.2395,2.2395,2.2395,2.2372,2.2371,2.2371,2.2313,2.2312,2.231,2.2309,2.2283,2.2284,2.2284,0,0,0,0,0,0,0,0,0,0,0,0,0,2.2382,2.239,2.2395,2.2363,2.236,2.2372,2.2371,2.2371,2.2313,2.2311,2.231,2.2308,2.2283,2.2284,2.2285,2.2325,0,0,2.2287,2.2287,0,0,0,0,0,0,0,0,2.2382,2.2382,2.2368,2.2365,2.2362,2.2343,2.236,2.2356,2.2314,2.2331,2.2309,2.2307,2.2305,2.2304,2.2303,2.2324,2.2323,2.2287,2.2287,2.2287,2.2288,0,0,0,0,0,0,0,2.2383,2.2383,2.2386,2.2368,2.2364,2.235,2.2346,2.2359,2.2328,2.2329,2.2325,2.2323,2.2303,2.2303,2.2302,2.2323,2.2287,2.2287,2.2288,2.2288,2.2378,2.238,0,0,0,0,0,0,2.2388,2.2383,2.2386,2.2385,2.2368,2.2351,2.2348,2.2351,2.2328,2.2323,2.2325,2.232,2.2302,2.2301,2.2301,2.2348,2.2287,2.2288,2.2288,2.2376,2.2378,2.2381,0,0,0,0,0,0,2.2388,2.2389,2.2387,2.2383,2.2382,2.2353,2.2358,2.2352,2.2351,2.2325,2.2319,2.233,2.2301,2.23,2.232,2.2347,2.2288,2.2289,2.2374,2.2377,2.238,2.2443,0,0,0,0,0,0,2.2388,2.2389,2.2405,2.2384,2.2382,2.2407,2.2359,2.2352,2.2353,2.2347,2.2328,2.2323,2.2299,2.232,2.2321,2.2347,2.229,2.2371,2.2375,2.2379,2.2439,2.2448,2.2456,0,0,0,0,0,2.2388,2.2423,2.2406,2.2406,2.2401,2.2409,2.2408,2.238,2.2355,2.237,2.2354,2.2324,2.2344,2.2322,2.2323,2.2349,2.2369,2.2374,2.2378,2.2435,2.2446,2.2456,0,0,0,0,0,0,2.2446,2.2419,2.24,2.2429,2.2422,2.2399,2.2417,2.2393,2.2392,2.2387,2.2352,2.2348,2.2374,2.2363,2.234,2.2389,2.2352,2.2357,2.2394,2.2405,2.2414,2.2415,2.229,0,0,0,0,0,2.2462,2.2471,2.2447,2.2475,2.2473,2.2446,2.2448,2.2428,2.2419,2.2415,2.24,2.2392,2.2397,2.24,2.2403,2.2437,2.2433,2.2456,2.2464,2.2472,2.2476,2.2495,2.2505,2.2395,2.2395,2.2395,0,0,2.2495,2.2482,2.2489,2.2486,2.2478,2.2489,2.2444,2.2456,2.2464,2.2417,2.2436,2.2424,2.2413,2.2441,2.2453,2.2434,2.2506,2.2477,2.2483,2.2484,2.2501,2.2511,2.2521,2.2398,2.2398,2.2397,0,0,2.2561,2.2551,2.2574,2.2568,2.2557,2.2539,2.2545,2.2527,2.2518,2.2536,2.2502,2.251,2.2519,2.2513,2.2511,2.2577,2.2551,2.2579,2.2624,2.2643,2.2652,2.266,2.2684,2.2693,2.2584,2.2584,2.2584,0,2.2603,2.2618,2.2589,2.2604,2.2604,2.2564,2.2587,2.2582,2.2573,2.2574,2.2552,2.2563,2.2553,2.258,2.2596,2.2596,2.2602,2.2581,2.2653,2.266,2.2667,2.269,2.2699,2.2588,2.2587,2.2587,2.2586,0,2.2671,2.2682,2.2701,2.2695,2.2697,2.2716,2.269,2.2696,2.2676,2.2661,2.2681,2.2668,2.2668,2.2672,2.2652,2.2697,2.2686,2.2659,2.2622,2.2682,2.2703,2.2711,2.2593,2.2591,2.259,2.2589,0,0,2.277,2.2749,2.2757,2.2754,2.2741,2.2748,2.2767,2.2767,2.2774,2.2769,2.2784,2.2793,2.2769,2.2767,2.2746,2.2763,2.2818,2.2734,2.2734,2.2751,2.2868,2.2888,2.2899,2.28,2.2802,2.2803,2.2869,0,2.2833,2.2863,2.2838,2.2873,2.2883,2.2846,2.2862,2.2856,2.2843,2.2849,2.2834,2.2842,2.281,2.2809,2.2823,2.2808,2.2841,2.2803,2.2814,2.2814,2.2818,2.2909,2.293,2.2993,2.2877,2.2878,2.2879,0,2.2909,2.291,2.2946,2.2932,2.2935,2.295,2.295,2.2957,2.295,2.2939,2.2938,2.2913,2.293,2.2894,2.2918,2.2892,2.2896,2.2889,2.2891,2.2891,2.2851,2.2913,2.3012,2.3022,2.2892,2.2891,2.289,0,2.2979,2.2989,2.3012,2.3011,2.2995,2.3007,2.3001,2.2991,2.2994,2.2994,2.2996,2.2998,2.2999,2.3001,2.2977,2.2953,2.3004,2.2965,2.2996,2.2997,2.3008,2.3008,2.3111,2.301,2.301,2.301,2.301,0,2.3052,2.3075,2.3044,2.3058,2.3084,2.3056,2.3083,2.3073,2.3065,2.3077,2.3045,2.3057,2.3025,2.3034,2.3015,2.3039,2.3039,2.3031,2.3026,2.3034,2.3035,2.3036,2.3031,2.3012,2.3012,2.3011,2.3011,0,2.3134,2.3114,2.3137,2.3121,2.3118,2.3138,2.3124,2.3137,2.3122,2.3138,2.314,2.3117,2.3126,2.3103,2.3108,2.3096,2.313,2.3117,2.3132,2.3129,2.3162,2.3159,2.3268,2.3282,2.3172,2.3173,2.3174,0,2.3182,2.3199,2.3186,2.3193,2.3189,2.3199,2.3202,2.3176,2.3181,2.3175,2.3189,2.3195,2.3199,2.3215,2.3199,2.3203,2.3191,2.3229,2.3191,2.3199,2.3192,2.3192,2.3194,2.3237,2.3238,2.3239,2.324,0,2.3269,2.3259,2.3265,2.3269,2.3275,2.3276,2.3275,2.3282,2.3254,2.3261,2.3271,2.3274,2.328,2.3287,2.3288,2.3282,2.3257,2.3252,2.326,2.3269,2.3277,2.3274,2.3155,2.325,2.3249,2.3248,2.3247,2.3247,2.3335,2.335,2.3344,2.3353,2.335,2.3351,2.3363,2.3351,2.3359,2.3362,2.3346,2.336,2.3353,2.3352,2.3349,2.3359,2.3341,2.3352,2.3355,2.3358,2.3364,2.3276,2.3359,2.3358,2.3358,2.3358,2.3358,0,2.3422,2.3417,2.3425,2.3426,2.3434,2.3411,2.3409,2.3417,2.343,2.3426,2.3431,2.3443,2.3451,2.3436,2.3441,2.3452,2.3441,2.3455,2.3454,2.3453,2.3379,2.3372,2.3464,2.3464,2.3464,2.3464,2.3464,2.3464,2.3467,2.3492,2.3482,2.3505,2.3499,2.3513,2.3515,2.3515,2.3513,2.3528,2.3534,2.3525,2.3518,2.3523,2.3529,2.3524,2.3528,2.3546,2.3538,2.3468,2.3458,2.3448,2.3442,2.3547,2.3547,2.3611,2.3612,2.3612]}]]